Location: Moscow
(44.4414°N, 72.7154°W)
Time: 01:05:19
(UTC+00:00)

Courier 1B - Pass Details

Date: 14 November 2024
Orbit: 962 x 1208 km, 28.3° (Epoch: 08 December)

Event Time Altitude Azimuth Distance (km) Brightness Sun altitude
Rises 21:52:40 0° 247° (WSW) 3,636 13.4 -5.6°
Reaches altitude 10° 21:56:26 10° 226° (SW) 2,685 11.1 -6.2°
Maximum altitude 22:00:05 16° 191° (SSW) 2,299 9.9 -6.8°
Drops below altitude 10° 22:03:46 10° 156° (SSE) 2,710 9.8 -7.4°
Sets 22:07:36 0° 136° (SE) 3,688 10.3 -8.1°
